BID42A EBOS-EGGP

Flight info

Callsign BID42A
Flight time 1h 26m
Altitude 16000
Route SASKI L608 CLN DCT EBOTO N601 LESTA
Aircraft SW4/L-SDFGIRY/S

Departure

Time 2026-05-04 10:05
Airport Ostend-Bruges International Airport (EBOS)

Arrival

Time 2026-05-04 11:31
Airport Liverpool John Lennon Airport (EGGP)
Time Latitude Longitude Altitude Speed Heading
2026-05-04 09:56 51.20226 2.87346 15 ft 0 kts 58°
2026-05-04 10:00 51.20221 2.87917 6 ft 19 kts 77°
2026-05-04 10:00 51.20226 2.87950 5 ft 0 kts 75°
2026-05-04 10:04 51.20106 2.88241 4 ft 0 kts 253°
2026-05-04 10:04 51.20103 2.88224 4 ft 6 kts 256°
2026-05-04 10:04 51.20083 2.88095 4 ft 17 kts 256°
2026-05-04 10:04 51.20032 2.87772 6 ft 66 kts 258°
2026-05-04 10:05 51.19854 2.86609 33 ft 134 kts 259°
2026-05-04 10:05 51.19609 2.85084 406 ft 150 kts 260°
2026-05-04 10:05 51.19490 2.83344 788 ft 169 kts 281°
2026-05-04 10:05 51.19780 2.81463 1187 ft 180 kts 302°
2026-05-04 10:06 51.20365 2.79660 1605 ft 190 kts 298°
2026-05-04 10:06 51.20928 2.77713 2015 ft 195 kts 296°
2026-05-04 10:06 51.21471 2.75732 2417 ft 198 kts 295°
2026-05-04 10:08 51.24695 2.63584 5009 ft 192 kts 294°
2026-05-04 10:08 51.25204 2.61644 5483 ft 189 kts 294°
2026-05-04 10:08 51.25940 2.59968 5942 ft 186 kts 326°
2026-05-04 10:08 51.27145 2.59335 6420 ft 183 kts 347°
2026-05-04 10:09 51.28371 2.58904 6890 ft 181 kts 347°
2026-05-04 10:09 51.29602 2.58482 7367 ft 179 kts 347°
2026-05-04 10:09 51.30803 2.58078 7839 ft 177 kts 347°
2026-05-04 10:09 51.32000 2.57674 8314 ft 175 kts 347°
2026-05-04 10:10 51.33182 2.57279 8789 ft 173 kts 347°
2026-05-04 10:10 51.34346 2.56889 9256 ft 171 kts 347°
2026-05-04 10:10 51.35491 2.56506 9711 ft 168 kts 347°
2026-05-04 10:10 51.36640 2.56122 10084 ft 173 kts 347°
2026-05-04 10:11 51.37888 2.55701 10406 ft 194 kts 347°
2026-05-04 10:11 51.39268 2.55238 10712 ft 211 kts 347°
2026-05-04 10:11 51.40736 2.54745 11015 ft 222 kts 347°
2026-05-04 10:11 51.42284 2.54223 11305 ft 231 kts 347°
2026-05-04 10:12 51.43888 2.53685 11588 ft 237 kts 347°
2026-05-04 10:12 51.45501 2.53142 11858 ft 241 kts 347°
2026-05-04 10:12 51.47154 2.52585 12131 ft 244 kts 347°
2026-05-04 10:12 51.48823 2.52023 12415 ft 246 kts 347°
2026-05-04 10:13 51.50500 2.51456 12689 ft 247 kts 347°
2026-05-04 10:13 51.52185 2.50888 12971 ft 248 kts 347°
2026-05-04 10:13 51.53846 2.50233 13231 ft 246 kts 333°
2026-05-04 10:13 51.55018 2.48379 13526 ft 238 kts 296°
2026-05-04 10:14 51.55677 2.45959 13823 ft 238 kts 291°
2026-05-04 10:14 51.56278 2.43494 14090 ft 238 kts 289°
2026-05-04 10:16 51.60261 2.26117 15956 ft 239 kts 288°
2026-05-04 10:16 51.60838 2.23571 15984 ft 247 kts 288°
2026-05-04 10:16 51.61436 2.20933 15991 ft 254 kts 288°
2026-05-04 10:16 51.62042 2.18257 15990 ft 259 kts 288°
2026-05-04 10:17 51.62662 2.15516 15992 ft 263 kts 288°
2026-05-04 10:17 51.63291 2.12736 15993 ft 265 kts 288°
2026-05-04 10:19 51.67730 1.92941 15986 ft 270 kts 288°
2026-05-04 10:19 51.68362 1.90106 15979 ft 270 kts 288°
2026-05-04 10:19 51.68999 1.87247 15980 ft 270 kts 288°
2026-05-04 10:19 51.69627 1.84421 15977 ft 270 kts 288°
2026-05-04 10:20 51.70262 1.81563 15984 ft 270 kts 288°
2026-05-04 10:20 51.70898 1.78692 15986 ft 270 kts 288°
2026-05-04 10:20 51.71524 1.75871 15983 ft 270 kts 288°
2026-05-04 10:20 51.72159 1.72999 15978 ft 270 kts 288°
2026-05-04 10:21 51.72785 1.70166 15987 ft 270 kts 288°
2026-05-04 10:21 51.73418 1.67299 15986 ft 270 kts 288°
2026-05-04 10:21 51.74044 1.64454 15993 ft 270 kts 288°
2026-05-04 10:21 51.74677 1.61574 15984 ft 271 kts 288°
2026-05-04 10:22 51.75929 1.55870 15987 ft 271 kts 288°
2026-05-04 10:22 51.76555 1.53014 15992 ft 271 kts 288°
2026-05-04 10:22 51.77178 1.50166 15992 ft 271 kts 288°
2026-05-04 10:23 51.77809 1.47278 15988 ft 271 kts 288°
2026-05-04 10:23 51.78429 1.44435 15990 ft 271 kts 288°
2026-05-04 10:25 51.82795 1.24310 15997 ft 270 kts 287°
2026-05-04 10:25 51.83410 1.21456 15996 ft 270 kts 287°
2026-05-04 10:25 51.84031 1.18574 15996 ft 270 kts 287°
2026-05-04 10:25 51.84641 1.15737 16000 ft 270 kts 287°
2026-05-04 10:26 51.85386 1.12924 16002 ft 271 kts 292°
2026-05-04 10:26 51.86175 1.10174 15998 ft 272 kts 293°
2026-05-04 10:26 51.86974 1.07395 16001 ft 272 kts 293°
2026-05-04 10:26 51.87775 1.04603 16002 ft 272 kts 293°
2026-05-04 10:27 51.88570 1.01832 15999 ft 272 kts 293°
2026-05-04 10:27 51.89364 0.99062 16000 ft 272 kts 293°
2026-05-04 10:27 51.90151 0.96310 16000 ft 272 kts 293°
2026-05-04 10:27 51.90945 0.93533 15998 ft 272 kts 293°
2026-05-04 10:28 51.91742 0.90748 15996 ft 269 kts 293°
2026-05-04 10:28 51.92529 0.87987 15988 ft 268 kts 293°
2026-05-04 10:28 51.93297 0.85294 15990 ft 264 kts 293°
2026-05-04 10:28 51.94060 0.82610 15990 ft 261 kts 293°
2026-05-04 10:29 51.94817 0.79949 15994 ft 259 kts 293°
2026-05-04 10:29 51.95569 0.77300 15992 ft 258 kts 293°
2026-05-04 10:29 51.96318 0.74663 15994 ft 257 kts 293°
2026-05-04 10:29 51.97058 0.72046 15995 ft 256 kts 293°
2026-05-04 10:30 51.97802 0.69420 15996 ft 256 kts 293°
2026-05-04 10:30 51.98535 0.66826 16000 ft 256 kts 293°
2026-05-04 10:30 51.99281 0.64187 16000 ft 255 kts 293°
2026-05-04 10:30 52.00015 0.61584 15999 ft 255 kts 293°
2026-05-04 10:31 52.00753 0.58964 16004 ft 257 kts 293°
2026-05-04 10:31 52.01501 0.56308 16008 ft 259 kts 293°
2026-05-04 10:32 52.06009 0.40222 16011 ft 262 kts 293°
2026-05-04 10:33 52.06757 0.37541 16013 ft 263 kts 293°
2026-05-04 10:33 52.07506 0.34858 16013 ft 263 kts 292°
2026-05-04 10:33 52.08267 0.32125 16015 ft 263 kts 292°
2026-05-04 10:33 52.09011 0.29452 16016 ft 263 kts 292°
2026-05-04 10:34 52.09772 0.26713 16016 ft 263 kts 292°
2026-05-04 10:34 52.10524 0.24005 16015 ft 263 kts 292°
2026-05-04 10:34 52.11279 0.21283 16015 ft 263 kts 292°
2026-05-04 10:34 52.12024 0.18594 16016 ft 263 kts 292°
2026-05-04 10:35 52.12786 0.15835 16015 ft 263 kts 292°
2026-05-04 10:35 52.13537 0.13125 16016 ft 263 kts 292°
2026-05-04 10:35 52.14281 0.10425 16016 ft 263 kts 292°
2026-05-04 10:35 52.15037 0.07678 16017 ft 263 kts 292°
2026-05-04 10:36 52.15782 0.04973 16019 ft 263 kts 292°
2026-05-04 10:36 52.16525 0.02272 16019 ft 263 kts 292°
2026-05-04 10:36 52.17279 -0.00472 16018 ft 263 kts 292°
2026-05-04 10:36 52.18024 -0.03192 16019 ft 263 kts 292°
2026-05-04 10:37 52.18773 -0.05921 16025 ft 263 kts 292°
2026-05-04 10:37 52.19523 -0.08660 16021 ft 264 kts 292°
2026-05-04 10:37 52.20270 -0.11396 16017 ft 264 kts 292°
2026-05-04 10:37 52.21016 -0.14126 16020 ft 264 kts 292°
2026-05-04 10:39 52.25476 -0.30525 16017 ft 264 kts 292°
2026-05-04 10:39 52.26226 -0.33296 16022 ft 264 kts 292°
2026-05-04 10:39 52.26964 -0.36025 16024 ft 264 kts 292°
2026-05-04 10:40 52.27707 -0.38775 16024 ft 264 kts 292°
2026-05-04 10:40 52.28447 -0.41518 16016 ft 264 kts 292°
2026-05-04 10:40 52.29180 -0.44241 16015 ft 264 kts 292°
2026-05-04 10:40 52.29920 -0.46987 16014 ft 264 kts 292°
2026-05-04 10:41 52.30658 -0.49730 16017 ft 264 kts 292°
2026-05-04 10:41 52.31398 -0.52491 16010 ft 264 kts 292°
2026-05-04 10:41 52.32130 -0.55216 16011 ft 264 kts 292°
2026-05-04 10:41 52.32864 -0.57957 16012 ft 264 kts 292°
2026-05-04 10:42 52.33601 -0.60707 16013 ft 264 kts 292°
2026-05-04 10:42 52.34334 -0.63448 16014 ft 264 kts 292°
2026-05-04 10:42 52.35067 -0.66196 16018 ft 264 kts 291°
2026-05-04 10:42 52.35870 -0.68919 16006 ft 266 kts 303°
2026-05-04 10:43 52.37261 -0.70773 16021 ft 268 kts 327°
2026-05-04 10:44 52.48510 -0.81797 16025 ft 269 kts 327°
2026-05-04 10:45 52.50128 -0.83393 16024 ft 269 kts 327°
2026-05-04 10:45 52.51725 -0.84970 16020 ft 269 kts 327°
2026-05-04 10:45 52.53323 -0.86549 16023 ft 269 kts 327°
2026-05-04 10:45 52.54929 -0.88137 16023 ft 269 kts 327°
2026-05-04 10:46 52.56532 -0.89724 16022 ft 269 kts 327°
2026-05-04 10:46 52.58149 -0.91326 16025 ft 269 kts 327°
2026-05-04 10:46 52.59731 -0.92896 16023 ft 269 kts 327°
2026-05-04 10:46 52.61335 -0.94489 16025 ft 269 kts 327°
2026-05-04 10:47 52.62937 -0.96081 16032 ft 269 kts 327°
2026-05-04 10:47 52.64540 -0.97674 16029 ft 269 kts 327°
2026-05-04 10:47 52.66137 -0.99265 16030 ft 269 kts 327°
2026-05-04 10:47 52.67755 -1.00877 16030 ft 269 kts 327°
2026-05-04 10:49 52.77772 -1.14170 16034 ft 265 kts 310°
2026-05-04 10:49 52.78980 -1.16454 16034 ft 265 kts 310°
2026-05-04 10:50 52.80199 -1.18756 16034 ft 265 kts 310°
2026-05-04 10:51 52.88697 -1.34918 16035 ft 266 kts 310°
2026-05-04 10:52 52.89907 -1.37227 16034 ft 266 kts 310°
2026-05-04 10:52 52.91126 -1.39556 16033 ft 266 kts 310°
2026-05-04 10:52 52.92341 -1.41878 16032 ft 266 kts 310°
2026-05-04 10:54 53.00798 -1.58116 16025 ft 266 kts 310°
2026-05-04 10:54 53.02011 -1.60452 16029 ft 266 kts 310°
2026-05-04 10:56 53.06607 -1.79614 15652 ft 256 kts 278°
2026-05-04 10:56 53.06891 -1.82538 15443 ft 254 kts 278°
2026-05-04 10:56 53.07164 -1.85386 15240 ft 252 kts 278°
2026-05-04 10:57 53.07443 -1.88300 15034 ft 251 kts 278°
2026-05-04 10:57 53.07715 -1.91157 14834 ft 250 kts 278°
2026-05-04 10:57 53.07985 -1.94015 14634 ft 250 kts 278°
2026-05-04 10:57 53.08251 -1.96840 14435 ft 249 kts 278°
2026-05-04 10:58 53.08519 -1.99682 14235 ft 249 kts 279°
2026-05-04 10:58 53.08788 -2.02548 14030 ft 249 kts 279°
2026-05-04 10:58 53.09056 -2.05394 13825 ft 249 kts 279°
2026-05-04 10:58 53.09320 -2.08216 13624 ft 249 kts 279°
2026-05-04 10:59 53.09586 -2.11071 13425 ft 248 kts 279°
2026-05-04 10:59 53.09851 -2.13915 13220 ft 248 kts 278°
2026-05-04 10:59 53.10110 -2.16727 13022 ft 248 kts 279°
2026-05-04 10:59 53.10371 -2.19550 12821 ft 248 kts 279°
2026-05-04 11:00 53.10632 -2.22395 12622 ft 248 kts 279°
2026-05-04 11:01 53.12446 -2.42277 11233 ft 249 kts 279°
2026-05-04 11:02 53.12706 -2.45151 11029 ft 249 kts 279°
2026-05-04 11:02 53.12964 -2.48025 10830 ft 251 kts 279°
2026-05-04 11:05 53.16631 -2.86916 9845 ft 238 kts 280°
2026-05-04 11:06 53.16887 -2.89638 9596 ft 238 kts 280°
2026-05-04 11:06 53.17151 -2.92451 9352 ft 248 kts 280°
2026-05-04 11:06 53.17421 -2.95329 9109 ft 255 kts 279°
2026-05-04 11:06 53.17701 -2.98312 8857 ft 259 kts 279°
2026-05-04 11:08 53.20739 -3.18691 7091 ft 263 kts 330°
2026-05-04 11:10 53.30706 -3.12853 5397 ft 177 kts 29°
2026-05-04 11:12 53.32608 -3.01196 1855 ft 159 kts 84°
2026-05-04 11:12 53.32692 -2.99352 1623 ft 151 kts 84°
2026-05-04 11:12 53.32769 -2.97714 1413 ft 139 kts 84°
2026-05-04 11:12 53.32847 -2.96062 1239 ft 143 kts 84°
2026-05-04 11:13 53.32924 -2.94420 1048 ft 133 kts 83°
2026-05-04 11:13 53.32990 -2.93004 846 ft 111 kts 83°
2026-05-04 11:13 53.33050 -2.91710 700 ft 110 kts 83°
2026-05-04 11:13 53.33110 -2.90449 556 ft 107 kts 83°
2026-05-04 11:14 53.33163 -2.89210 409 ft 107 kts 85°
2026-05-04 11:14 53.33221 -2.87948 265 ft 109 kts 83°
2026-05-04 11:14 53.33284 -2.86684 117 ft 109 kts 83°
2026-05-04 11:16 53.33756 -2.75083 2460 ft 186 kts 85°
2026-05-04 11:16 53.33832 -2.72832 2476 ft 198 kts 80°
2026-05-04 11:16 53.34422 -2.70814 2484 ft 194 kts 57°
2026-05-04 11:17 53.35150 -2.68899 2475 ft 195 kts 57°
2026-05-04 11:17 53.35881 -2.66985 2473 ft 196 kts 56°
2026-05-04 11:19 53.33172 -2.66159 2481 ft 212 kts 278°
2026-05-04 11:19 53.33436 -2.68603 2478 ft 218 kts 283°
2026-05-04 11:19 53.33775 -2.71117 2476 ft 221 kts 284°
2026-05-04 11:19 53.33986 -2.73703 2477 ft 224 kts 272°
2026-05-04 11:20 53.34042 -2.76293 2475 ft 225 kts 273°
2026-05-04 11:20 53.34096 -2.78952 2473 ft 226 kts 273°
2026-05-04 11:20 53.34151 -2.81588 2473 ft 227 kts 273°
2026-05-04 11:20 53.34205 -2.84228 2474 ft 227 kts 273°
2026-05-04 11:22 53.34566 -3.02801 2475 ft 228 kts 273°
2026-05-04 11:22 53.34616 -3.05459 2475 ft 228 kts 273°
2026-05-04 11:23 53.34665 -3.08110 2475 ft 228 kts 273°
2026-05-04 11:23 53.34714 -3.10782 2474 ft 228 kts 273°
2026-05-04 11:24 53.32009 -3.17667 2480 ft 145 kts 100°
2026-05-04 11:25 53.31994 -3.15883 2511 ft 163 kts 87°
2026-05-04 11:25 53.32041 -3.13888 2490 ft 179 kts 86°
2026-05-04 11:25 53.32119 -3.11729 2482 ft 190 kts 85°
2026-05-04 11:26 53.32319 -3.07181 2473 ft 200 kts 85°
2026-05-04 11:27 53.32890 -2.95134 1090 ft 111 kts 84°
2026-05-04 11:28 53.32951 -2.93835 925 ft 111 kts 84°
2026-05-04 11:28 53.33011 -2.92561 785 ft 105 kts 84°
2026-05-04 11:28 53.33069 -2.91333 630 ft 111 kts 83°
2026-05-04 11:28 53.33127 -2.89973 509 ft 121 kts 83°
2026-05-04 11:29 53.33196 -2.88591 318 ft 117 kts 81°
2026-05-04 11:29 53.33258 -2.87247 151 ft 117 kts 82°
2026-05-04 11:29 53.33323 -2.85895 72 ft 106 kts 85°
2026-05-04 11:29 53.33363 -2.84991 68 ft 56 kts 85°
2026-05-04 11:31 53.33495 -2.85916 68 ft 18 kts 313°